Hourly Weather Kitnowko

Today, 29 July, Thursday

Time Temperature Precipitation Wind Pressure Humidity
00:00 +19°C° 0.3 mm 2 mps 749 mmHg 92%
01:00 +19°C° 0 mm 3 mps 749 mmHg 93%
02:00 +18°C° 0.1 mm 3 mps 749 mmHg 93%
03:00 +18°C° 0.1 mm 3 mps 749 mmHg 94%
04:00 +17°C° 0.1 mm 3 mps 749 mmHg 94%
05:00 +18°C° 0 mm 3 mps 749 mmHg 88%
06:00 +19°C° 0 mm 3 mps 749 mmHg 82%
07:00 +21°C° 0 mm 4 mps 750 mmHg 76%
08:00 +22°C° 0 mm 4 mps 749 mmHg 69%
09:00 +25°C° 0 mm 5 mps 749 mmHg 61%
10:00 +26°C° 0 mm 5 mps 749 mmHg 54%
11:00 +26°C° 0 mm 5 mps 749 mmHg 53%
12:00 +26°C° 0 mm 5 mps 749 mmHg 52%
13:00 +26°C° 0 mm 5 mps 749 mmHg 50%
14:00 +26°C° 0 mm 5 mps 749 mmHg 49%
15:00 +26°C° 0 mm 4 mps 749 mmHg 47%
16:00 +26°C° 0 mm 3 mps 749 mmHg 46%
17:00 +25°C° 0 mm 3 mps 749 mmHg 50%
18:00 +24°C° 0 mm 3 mps 749 mmHg 55%
19:00 +21°C° 0 mm 3 mps 749 mmHg 59%
20:00 +20°C° 0 mm 3 mps 749 mmHg 62%
21:00 +19°C° 0 mm 3 mps 749 mmHg 64%
22:00 +18°C° 0 mm 3 mps 749 mmHg 67%
23:00 +17°C° 0 mm 3 mps 749 mmHg 69%

Tomorrow, 30 July, Friday

Time Temperature Precipitation Wind Pressure Humidity
00:00 +16°C° 0 mm 3 mps 749 mmHg 72%
01:00 +16°C° 0 mm 3 mps 749 mmHg 74%
02:00 +14°C° 0 mm 3 mps 749 mmHg 75%
03:00 +14°C° 0 mm 3 mps 749 mmHg 76%
04:00 +13°C° 0 mm 3 mps 749 mmHg 77%
05:00 +16°C° 0 mm 3 mps 749 mmHg 71%
06:00 +17°C° 0 mm 4 mps 749 mmHg 65%
07:00 +19°C° 0 mm 5 mps 749 mmHg 59%
08:00 +20°C° 0 mm 6 mps 749 mmHg 54%
09:00 +21°C° 0 mm 7 mps 749 mmHg 49%
10:00 +22°C° 0 mm 7 mps 749 mmHg 44%
11:00 +23°C° 0 mm 7 mps 748 mmHg 42%
12:00 +24°C° 0 mm 7 mps 748 mmHg 39%
13:00 +26°C° 0 mm 7 mps 748 mmHg 37%
14:00 +26°C° 0 mm 7 mps 748 mmHg 38%
15:00 +27°C° 0 mm 7 mps 747 mmHg 38%
16:00 +27°C° 0 mm 6 mps 747 mmHg 38%
17:00 +25°C° 0 mm 5 mps 747 mmHg 44%
18:00 +23°C° 0 mm 4 mps 747 mmHg 49%
19:00 +21°C° 0 mm 3 mps 747 mmHg 54%
20:00 +20°C° 0 mm 3 mps 747 mmHg 56%
21:00 +19°C° 0 mm 3 mps 747 mmHg 58%
22:00 +18°C° 0 mm 3 mps 747 mmHg 59%
23:00 +17°C° 0 mm 3 mps 747 mmHg 62%

Day after tomorrow, 31 July, Saturday

Time Temperature Precipitation Wind Pressure Humidity
00:00 +17°C° 0 mm 2 mps 747 mmHg 65%
01:00 +16°C° 0 mm 2 mps 748 mmHg 67%
02:00 +16°C° 0 mm 2 mps 747 mmHg 69%
03:00 +16°C° 0 mm 2 mps 747 mmHg 70%
04:00 +15°C° 0 mm 2 mps 747 mmHg 71%
05:00 +17°C° 0 mm 2 mps 747 mmHg 68%
06:00 +18°C° 0 mm 3 mps 747 mmHg 64%
07:00 +20°C° 0 mm 3 mps 747 mmHg 60%
08:00 +22°C° 0 mm 3 mps 747 mmHg 56%
09:00 +24°C° 0 mm 3 mps 747 mmHg 52%
10:00 +26°C° 0 mm 4 mps 747 mmHg 48%
11:00 +26°C° 0 mm 4 mps 747 mmHg 50%
12:00 +26°C° 0 mm 5 mps 747 mmHg 51%
13:00 +26°C° 0 mm 5 mps 746 mmHg 53%
14:00 +26°C° 0 mm 5 mps 746 mmHg 52%
15:00 +27°C° 0 mm 6 mps 746 mmHg 51%
16:00 +27°C° 0 mm 6 mps 745 mmHg 51%
17:00 +26°C° 0 mm 5 mps 745 mmHg 55%
18:00 +25°C° 0 mm 4 mps 745 mmHg 59%
19:00 +22°C° 0 mm 3 mps 745 mmHg 63%
20:00 +21°C° 0 mm 3 mps 745 mmHg 62%
21:00 +20°C° 0 mm 3 mps 746 mmHg 61%
22:00 +19°C° 0 mm 3 mps 746 mmHg 60%
23:00 +18°C° 0 mm 3 mps 746 mmHg 64%

1 August, Sunday

Time Temperature Precipitation Wind Pressure Humidity
00:00 +17°C° 0 mm 3 mps 746 mmHg 68%
01:00 +16°C° 0 mm 3 mps 747 mmHg 71%
02:00 +16°C° 0 mm 3 mps 747 mmHg 72%
03:00 +14°C° 0 mm 4 mps 747 mmHg 73%
04:00 +14°C° 0 mm 4 mps 747 mmHg 74%
05:00 +15°C° 0 mm 4 mps 747 mmHg 72%
06:00 +17°C° 0 mm 4 mps 747 mmHg 70%
07:00 +19°C° 0 mm 5 mps 747 mmHg 68%
08:00 +20°C° 0 mm 5 mps 748 mmHg 63%
09:00 +21°C° 0 mm 4 mps 748 mmHg 59%
10:00 +22°C° 0 mm 4 mps 748 mmHg 54%
11:00 +22°C° 0.1 mm 4 mps 748 mmHg 59%
12:00 +21°C° 0.1 mm 4 mps 748 mmHg 65%
13:00 +20°C° 0.1 mm 5 mps 748 mmHg 70%
14:00 +20°C° 0.3 mm 4 mps 748 mmHg 73%
15:00 +19°C° 0.3 mm 3 mps 748 mmHg 76%
16:00 +19°C° 0.3 mm 3 mps 748 mmHg 80%
17:00 +19°C° 0.1 mm 3 mps 748 mmHg 80%
18:00 +18°C° 0.1 mm 2 mps 748 mmHg 80%
19:00 +18°C° 0.1 mm 2 mps 748 mmHg 81%
20:00 +17°C° 0 mm 2 mps 748 mmHg 82%
21:00 +17°C° 0 mm 2 mps 748 mmHg 83%
22:00 +16°C° 0 mm 2 mps 748 mmHg 84%
23:00 +16°C° 0 mm 2 mps 748 mmHg 83%

2 August, Monday

Time Temperature Precipitation Wind Pressure Humidity
00:00 +15°C° 0 mm 2 mps 748 mmHg 81%
01:00 +15°C° 0 mm 2 mps 749 mmHg 80%
02:00 +15°C° 0 mm 2 mps 749 mmHg 80%
03:00 +15°C° 0 mm 2 mps 749 mmHg 80%
04:00 +14°C° 0 mm 2 mps 749 mmHg 81%
05:00 +16°C° 0 mm 2 mps 749 mmHg 76%
06:00 +17°C° 0 mm 3 mps 749 mmHg 72%
07:00 +18°C° 0 mm 3 mps 749 mmHg 68%
08:00 +19°C° 0 mm 4 mps 750 mmHg 61%
09:00 +21°C° 0 mm 4 mps 750 mmHg 54%
10:00 +22°C° 0 mm 5 mps 750 mmHg 47%
11:00 +22°C° 0 mm 5 mps 750 mmHg 47%
12:00 +22°C° 0 mm 4 mps 750 mmHg 47%
13:00 +22°C° 0 mm 4 mps 750 mmHg 46%
14:00 +22°C° 0 mm 4 mps 750 mmHg 49%
15:00 +22°C° 0 mm 3 mps 750 mmHg 51%
16:00 +21°C° 0 mm 3 mps 750 mmHg 53%
17:00 +20°C° 0.2 mm 3 mps 750 mmHg 60%
18:00 +19°C° 0.2 mm 2 mps 750 mmHg 66%
19:00 +18°C° 0.2 mm 2 mps 750 mmHg 72%
20:00 +18°C° 0.2 mm 2 mps 751 mmHg 77%
21:00 +17°C° 0.2 mm 2 mps 751 mmHg 81%
22:00 +16°C° 0.2 mm 2 mps 751 mmHg 85%
23:00 +16°C° 0.1 mm 1 mps 751 mmHg 87%

3 August, Tuesday

Time Temperature Precipitation Wind Pressure Humidity
00:00 +15°C° 0.1 mm 1 mps 751 mmHg 88%
01:00 +15°C° 0.1 mm 1 mps 751 mmHg 90%
02:00 +14°C° 0 mm 1 mps 752 mmHg 91%
03:00 +14°C° 0 mm 1 mps 752 mmHg 92%
04:00 +14°C° 0 mm 2 mps 752 mmHg 93%
05:00 +15°C° 0 mm 2 mps 752 mmHg 89%
06:00 +16°C° 0 mm 2 mps 752 mmHg 85%
07:00 +18°C° 0 mm 3 mps 752 mmHg 81%
08:00 +19°C° 0 mm 3 mps 752 mmHg 71%
09:00 +21°C° 0 mm 3 mps 753 mmHg 61%
10:00 +24°C° 0 mm 3 mps 753 mmHg 51%
11:00 +24°C° 0 mm 3 mps 752 mmHg 49%
12:00 +24°C° 0 mm 3 mps 752 mmHg 47%
13:00 +25°C° 0 mm 4 mps 752 mmHg 46%
14:00 +25°C° 0 mm 3 mps 752 mmHg 47%
15:00 +24°C° 0 mm 3 mps 752 mmHg 49%
16:00 +24°C° 0 mm 2 mps 752 mmHg 50%
17:00 +23°C° 0.1 mm 2 mps 752 mmHg 56%
18:00 +21°C° 0.1 mm 2 mps 752 mmHg 62%
19:00 +19°C° 0.1 mm 2 mps 752 mmHg 68%
20:00 +18°C° 0.3 mm 2 mps 752 mmHg 75%
21:00 +17°C° 0.3 mm 2 mps 752 mmHg 82%
22:00 +15°C° 0.3 mm 2 mps 753 mmHg 89%
23:00 +15°C° 0 mm 1 mps 753 mmHg 88%
Show more